Location: Austin
(30.3000°N, 97.7500°W)
Time: 08:34:32
(UTC-06:00)

Fermi - Pass Details

Date: 20 November 2025
Orbit: 492 x 503 km, 25.6° (Epoch: 07 December)

Event Time Altitude Azimuth Distance (km) Brightness Sun altitude
Rises 17:50:23 0° 264° (W) 2,558 9.2 -4.5°
Reaches altitude 10° 17:52:46 10° 254° (WSW) 1,678 8.2 -5.0°
Maximum altitude 17:56:13 31° 190° (S) 880 5.2 -5.7°
Drops below altitude 10° 17:59:41 10° 127° (SE) 1,683 6.0 -6.4°
Sets 18:02:04 0° 117° (ESE) 2,567 6.8 -6.9°
